Time,TemperatureF,DewpointF,PressureIn,WindDirection,WindDirectionDegrees,WindSpeedMPH,WindSpeedGustMPH,Humidity,HourlyPrecipIn,Conditions,Clouds,dailyrainin,SolarRadiationWatts/m^2,SoftwareType,DateUTC
2013-02-02 00:00:00,40.9,39.3,29.61,North,0,3.0,-999.0,94,0.00,,,0.00,0,Wunderground v.1.15,2013-02-02 00:00:00,
2013-02-02 00:05:00,40.9,39.3,29.61,North,0,3.0,-999.0,94,0.00,,,0.00,0,Wunderground v.1.15,2013-02-02 00:05:00,
2013-02-02 00:10:00,40.9,39.3,29.61,North,0,3.0,-999.0,94,0.00,,,0.00,0,Wunderground v.1.15,2013-02-02 00:10:00,
2013-02-02 00:15:00,40.7,39.1,29.61,North,0,3.0,-999.0,94,0.00,,,0.00,0,Wunderground v.1.15,2013-02-02 00:15:00,
2013-02-02 00:20:00,40.7,39.1,29.61,North,0,3.0,-999.0,94,0.00,,,0.00,0,Wunderground v.1.15,2013-02-02 00:20:00,
2013-02-02 00:25:00,40.5,38.9,29.62,North,0,3.0,-999.0,94,0.00,,,0.00,0,Wunderground v.1.15,2013-02-02 00:25:00,
2013-02-02 00:30:00,40.5,38.9,29.62,North,0,3.0,-999.0,94,0.00,,,0.00,0,Wunderground v.1.15,2013-02-02 00:30:00,
2013-02-02 00:35:00,40.4,38.8,29.63,North,0,4.0,-999.0,94,0.00,,,0.00,0,Wunderground v.1.15,2013-02-02 00:35:00,
2013-02-02 00:40:00,40.4,38.8,29.63,North,0,4.0,-999.0,94,0.00,,,0.00,0,Wunderground v.1.15,2013-02-02 00:40:00,
2013-02-02 00:45:00,40.4,38.8,29.63,North,0,4.0,-999.0,94,0.00,,,0.00,0,Wunderground v.1.15,2013-02-02 00:45:00,
2013-02-02 00:50:00,40.4,38.8,29.63,North,0,4.0,-999.0,94,0.00,,,0.00,0,Wunderground v.1.15,2013-02-02 00:50:00,
2013-02-02 00:55:00,40.2,38.6,29.64,North,0,4.0,-999.0,94,0.00,,,0.00,0,Wunderground v.1.15,2013-02-02 00:55:00,
2013-02-02 01:00:00,40.2,38.6,29.64,North,0,4.0,-999.0,94,0.00,,,0.00,0,Wunderground v.1.15,2013-02-02 01:00:00,
2013-02-02 01:05:00,40.3,38.7,29.65,North,0,5.0,-999.0,94,0.00,,,0.00,0,Wunderground v.1.15,2013-02-02 01:05:00,
2013-02-02 01:10:00,40.3,38.7,29.65,North,0,5.0,-999.0,94,0.00,,,0.00,0,Wunderground v.1.15,2013-02-02 01:10:00,
2013-02-02 01:15:00,40.8,39.2,29.65,North,0,4.0,-999.0,94,0.00,,,0.00,0,Wunderground v.1.15,2013-02-02 01:15:00,
2013-02-02 01:20:00,40.8,39.2,29.65,North,0,4.0,-999.0,94,0.00,,,0.00,0,Wunderground v.1.15,2013-02-02 01:20:00,
2013-02-02 01:25:00,41.1,39.2,29.65,North,0,3.0,-999.0,93,0.00,,,0.00,0,Wunderground v.1.15,2013-02-02 01:25:00,
2013-02-02 01:30:00,41.1,39.2,29.65,North,0,3.0,-999.0,93,0.00,,,0.00,0,Wunderground v.1.15,2013-02-02 01:30:00,
2013-02-02 01:35:00,41.3,39.4,29.66,North,0,3.0,-999.0,93,0.00,,,0.00,0,Wunderground v.1.15,2013-02-02 01:35:00,
2013-02-02 01:40:00,41.3,39.4,29.66,North,0,3.0,-999.0,93,0.00,,,0.00,0,Wunderground v.1.15,2013-02-02 01:40:00,
2013-02-02 01:45:00,41.4,39.3,29.66,North,0,4.0,-999.0,92,0.00,,,0.00,0,Wunderground v.1.15,2013-02-02 01:45:00,
2013-02-02 01:50:00,41.4,39.3,29.66,North,0,4.0,-999.0,92,0.00,,,0.00,0,Wunderground v.1.15,2013-02-02 01:50:00,
2013-02-02 01:55:00,41.5,39.1,29.67,North,0,4.0,-999.0,91,0.00,,,0.00,0,Wunderground v.1.15,2013-02-02 01:55:00,
2013-02-02 02:00:00,41.5,39.1,29.67,North,0,4.0,-999.0,91,0.00,,,0.00,0,Wunderground v.1.15,2013-02-02 02:00:00,
2013-02-02 02:05:00,41.6,39.2,29.67,North,0,4.0,-999.0,91,0.00,,,0.00,0,Wunderground v.1.15,2013-02-02 02:05:00,
2013-02-02 02:10:00,41.6,39.2,29.67,North,0,4.0,-999.0,91,0.00,,,0.00,0,Wunderground v.1.15,2013-02-02 02:10:00,
2013-02-02 02:15:00,41.7,39.3,29.68,North,0,3.0,-999.0,91,0.00,,,0.00,0,Wunderground v.1.15,2013-02-02 02:15:00,
2013-02-02 02:20:00,41.7,39.3,29.68,North,0,3.0,-999.0,91,0.00,,,0.00,0,Wunderground v.1.15,2013-02-02 02:20:00,
2013-02-02 02:25:00,41.7,39.3,29.69,North,0,4.0,-999.0,91,0.00,,,0.00,0,Wunderground v.1.15,2013-02-02 02:25:00,
2013-02-02 02:30:00,41.7,39.3,29.69,North,0,4.0,-999.0,91,0.00,,,0.00,0,Wunderground v.1.15,2013-02-02 02:30:00,
2013-02-02 02:35:00,41.8,39.1,29.69,North,0,4.0,-999.0,90,0.00,,,0.00,0,Wunderground v.1.15,2013-02-02 02:35:00,
2013-02-02 02:40:00,41.8,39.1,29.69,North,0,4.0,-999.0,90,0.00,,,0.00,0,Wunderground v.1.15,2013-02-02 02:40:00,
2013-02-02 02:45:00,41.8,39.1,29.70,North,0,3.0,-999.0,90,0.00,,,0.00,0,Wunderground v.1.15,2013-02-02 02:45:00,
2013-02-02 02:50:00,41.8,39.1,29.70,North,0,3.0,-999.0,90,0.00,,,0.00,0,Wunderground v.1.15,2013-02-02 02:50:00,
2013-02-02 02:55:00,41.9,39.2,29.71,North,0,4.0,-999.0,90,0.00,,,0.00,0,Wunderground v.1.15,2013-02-02 02:55:00,
2013-02-02 03:00:00,41.9,39.2,29.71,North,0,4.0,-999.0,90,0.00,,,0.00,0,Wunderground v.1.15,2013-02-02 03:00:00,
2013-02-02 03:05:00,42.0,39.0,29.71,North,0,5.0,-999.0,89,0.00,,,0.00,0,Wunderground v.1.15,2013-02-02 03:05:00,
2013-02-02 03:10:00,42.0,39.0,29.71,North,0,5.0,-999.0,89,0.00,,,0.00,0,Wunderground v.1.15,2013-02-02 03:10:00,
2013-02-02 03:15:00,42.2,38.9,29.72,North,0,5.0,-999.0,88,0.00,,,0.00,0,Wunderground v.1.15,2013-02-02 03:15:00,
2013-02-02 03:20:00,42.2,38.9,29.72,North,0,5.0,-999.0,88,0.00,,,0.00,0,Wunderground v.1.15,2013-02-02 03:20:00,
2013-02-02 03:25:00,42.2,38.6,29.73,North,0,5.0,-999.0,87,0.00,,,0.00,0,Wunderground v.1.15,2013-02-02 03:25:00,
2013-02-02 03:30:00,42.2,38.6,29.73,North,0,5.0,-999.0,87,0.00,,,0.00,0,Wunderground v.1.15,2013-02-02 03:30:00,
2013-02-02 03:35:00,42.2,38.0,29.74,North,0,5.0,-999.0,85,0.00,,,0.00,0,Wunderground v.1.15,2013-02-02 03:35:00,
2013-02-02 03:40:00,42.2,38.0,29.74,North,0,5.0,-999.0,85,0.00,,,0.00,0,Wunderground v.1.15,2013-02-02 03:40:00,
2013-02-02 03:45:00,42.1,37.6,29.74,North,0,6.0,-999.0,84,0.00,,,0.00,0,Wunderground v.1.15,2013-02-02 03:45:00,
2013-02-02 03:50:00,42.1,37.6,29.74,North,0,6.0,-999.0,84,0.00,,,0.00,0,Wunderground v.1.15,2013-02-02 03:50:00,
2013-02-02 03:55:00,41.9,37.4,29.74,North,0,4.0,-999.0,84,0.00,,,0.00,0,Wunderground v.1.15,2013-02-02 03:55:00,
2013-02-02 04:00:00,41.9,37.4,29.74,North,0,4.0,-999.0,84,0.00,,,0.00,0,Wunderground v.1.15,2013-02-02 04:00:00,
2013-02-02 04:05:00,41.8,37.3,29.75,North,0,5.0,-999.0,84,0.00,,,0.00,0,Wunderground v.1.15,2013-02-02 04:05:00,
2013-02-02 04:10:00,41.8,37.3,29.75,North,0,5.0,-999.0,84,0.00,,,0.00,0,Wunderground v.1.15,2013-02-02 04:10:00,
2013-02-02 04:15:00,41.7,36.9,29.77,North,0,5.0,-999.0,83,0.00,,,0.00,0,Wunderground v.1.15,2013-02-02 04:15:00,
2013-02-02 04:20:00,41.7,36.9,29.77,North,0,5.0,-999.0,83,0.00,,,0.00,0,Wunderground v.1.15,2013-02-02 04:20:00,
2013-02-02 04:25:00,41.5,36.1,29.78,North,0,5.0,-999.0,81,0.00,,,0.00,0,Wunderground v.1.15,2013-02-02 04:25:00,
2013-02-02 04:30:00,41.5,36.1,29.78,North,0,5.0,-999.0,81,0.00,,,0.00,0,Wunderground v.1.15,2013-02-02 04:30:00,
2013-02-02 04:35:00,41.5,35.8,29.78,North,0,6.0,-999.0,80,0.00,,,0.00,0,Wunderground v.1.15,2013-02-02 04:35:00,
2013-02-02 04:40:00,41.5,35.8,29.78,North,0,6.0,-999.0,80,0.00,,,0.00,0,Wunderground v.1.15,2013-02-02 04:40:00,
2013-02-02 04:45:00,41.5,36.4,29.79,North,0,4.0,-999.0,82,0.00,,,0.00,0,Wunderground v.1.15,2013-02-02 04:45:00,
2013-02-02 04:50:00,41.5,36.4,29.79,North,0,4.0,-999.0,82,0.00,,,0.00,0,Wunderground v.1.15,2013-02-02 04:50:00,
2013-02-02 04:55:00,41.4,36.0,29.79,North,0,5.0,-999.0,81,0.00,,,0.00,0,Wunderground v.1.15,2013-02-02 04:55:00,
2013-02-02 05:00:00,41.4,36.0,29.79,North,0,5.0,-999.0,81,0.00,,,0.00,0,Wunderground v.1.15,2013-02-02 05:00:00,
2013-02-02 05:05:00,41.2,35.8,29.80,North,0,6.0,-999.0,81,0.00,,,0.00,0,Wunderground v.1.15,2013-02-02 05:05:00,
2013-02-02 05:10:00,41.2,35.8,29.80,North,0,6.0,-999.0,81,0.00,,,0.00,0,Wunderground v.1.15,2013-02-02 05:10:00,
2013-02-02 05:15:00,41.1,36.0,29.81,North,0,4.0,-999.0,82,0.00,,,0.00,0,Wunderground v.1.15,2013-02-02 05:15:00,
2013-02-02 05:20:00,41.1,36.0,29.81,North,0,4.0,-999.0,82,0.00,,,0.00,0,Wunderground v.1.15,2013-02-02 05:20:00,
2013-02-02 05:25:00,40.8,35.7,29.82,North,0,5.0,-999.0,82,0.00,,,0.00,0,Wunderground v.1.15,2013-02-02 05:25:00,
2013-02-02 05:30:00,40.8,35.7,29.82,North,0,5.0,-999.0,82,0.00,,,0.00,0,Wunderground v.1.15,2013-02-02 05:30:00,
2013-02-02 05:35:00,40.8,35.7,29.83,North,0,4.0,-999.0,82,0.00,,,0.00,0,Wunderground v.1.15,2013-02-02 05:35:00,
2013-02-02 05:40:00,40.8,35.7,29.83,North,0,4.0,-999.0,82,0.00,,,0.00,0,Wunderground v.1.15,2013-02-02 05:40:00,
2013-02-02 05:45:00,40.7,35.6,29.83,North,0,6.0,-999.0,82,0.00,,,0.00,0,Wunderground v.1.15,2013-02-02 05:45:00,
2013-02-02 05:50:00,40.7,35.6,29.83,North,0,6.0,-999.0,82,0.00,,,0.00,0,Wunderground v.1.15,2013-02-02 05:50:00,
2013-02-02 05:55:00,40.6,35.5,29.84,North,0,5.0,-999.0,82,0.00,,,0.00,0,Wunderground v.1.15,2013-02-02 05:55:00,
2013-02-02 06:00:00,40.6,35.5,29.84,North,0,5.0,-999.0,82,0.00,,,0.00,0,Wunderground v.1.15,2013-02-02 06:00:00,
2013-02-02 06:05:00,40.5,35.7,29.84,North,0,4.0,-999.0,83,0.00,,,0.00,0,Wunderground v.1.15,2013-02-02 06:05:00,
2013-02-02 06:10:00,40.5,35.7,29.84,North,0,4.0,-999.0,83,0.00,,,0.00,0,Wunderground v.1.15,2013-02-02 06:10:00,
2013-02-02 06:15:00,40.3,35.5,29.85,North,0,4.0,-999.0,83,0.00,,,0.00,0,Wunderground v.1.15,2013-02-02 06:15:00,
2013-02-02 06:20:00,40.3,35.5,29.85,North,0,4.0,-999.0,83,0.00,,,0.00,0,Wunderground v.1.15,2013-02-02 06:20:00,
2013-02-02 06:25:00,40.1,35.4,29.86,North,0,4.0,-999.0,83,0.00,,,0.00,0,Wunderground v.1.15,2013-02-02 06:25:00,
2013-02-02 06:30:00,40.1,35.4,29.86,North,0,4.0,-999.0,83,0.00,,,0.00,0,Wunderground v.1.15,2013-02-02 06:30:00,
2013-02-02 06:35:00,40.0,35.3,29.86,North,0,5.0,-999.0,83,0.00,,,0.00,0,Wunderground v.1.15,2013-02-02 06:35:00,
2013-02-02 06:40:00,40.0,35.3,29.86,North,0,5.0,-999.0,83,0.00,,,0.00,0,Wunderground v.1.15,2013-02-02 06:40:00,
2013-02-02 06:45:00,40.0,35.3,29.87,North,0,3.0,-999.0,83,0.00,,,0.00,0,Wunderground v.1.15,2013-02-02 06:45:00,
2013-02-02 06:50:00,40.0,35.3,29.87,North,0,3.0,-999.0,83,0.00,,,0.00,0,Wunderground v.1.15,2013-02-02 06:50:00,
2013-02-02 06:55:00,39.9,35.2,29.88,North,0,4.0,-999.0,83,0.00,,,0.00,0,Wunderground v.1.15,2013-02-02 06:55:00,
2013-02-02 07:00:00,39.9,35.2,29.88,North,0,4.0,-999.0,83,0.00,,,0.00,0,Wunderground v.1.15,2013-02-02 07:00:00,
2013-02-02 07:20:00,39.5,35.1,29.90,NNW,344,5.0,5.0,84,0.00,,,0.00,0,Wunderground v.1.15,2013-02-02 07:20:00,
2013-02-02 07:50:00,38.3,33.9,29.93,North,360,4.0,5.0,84,0.00,,,0.00,7,Wunderground v.1.15,2013-02-02 07:50:00,
2013-02-02 08:20:00,38.0,34.2,29.95,North,350,5.0,7.0,86,0.00,,,0.00,26,Wunderground v.1.15,2013-02-02 08:20:00,
2013-02-02 08:50:00,38.0,34.2,29.96,NW,307,6.0,6.0,86,0.00,,,0.00,49,Wunderground v.1.15,2013-02-02 08:50:00,
2013-02-02 09:20:00,39.6,35.2,29.98,North,355,5.0,5.0,84,0.00,,,0.00,163,Wunderground v.1.15,2013-02-02 09:20:00,
2013-02-02 09:50:00,41.2,35.5,30.00,NNW,339,5.0,5.0,80,0.00,,,0.00,244,Wunderground v.1.15,2013-02-02 09:50:00,
2013-02-02 10:20:00,42.3,35.6,30.01,North,360,5.0,6.0,77,0.00,,,0.00,292,Wunderground v.1.15,2013-02-02 10:20:00,
2013-02-02 10:50:00,44.0,36.9,30.03,NW,326,5.0,8.0,76,0.00,,,0.00,330,Wunderground v.1.15,2013-02-02 10:50:00,
2013-02-02 11:20:00,44.3,35.1,30.05,North,360,6.0,11.0,70,0.00,,,0.00,204,Wunderground v.1.15,2013-02-02 11:20:00,
2013-02-02 11:50:00,44.5,36.0,30.06,North,360,6.0,6.0,72,0.00,,,0.00,403,Wunderground v.1.15,2013-02-02 11:50:00,
2013-02-02 12:21:00,46.1,35.7,30.06,NNW,348,5.0,5.0,67,0.00,,,0.00,378,Wunderground v.1.15,2013-02-02 12:21:00,
2013-02-02 13:51:00,45.5,34.0,30.10,NNE,15,6.0,6.0,64,0.00,,,0.00,406,Wunderground v.1.15,2013-02-02 13:51:00,
2013-02-02 14:21:00,45.4,34.3,30.10,North,360,6.0,6.0,65,0.00,,,0.00,237,Wunderground v.1.15,2013-02-02 14:21:00,
2013-02-02 15:21:00,44.2,32.8,30.12,NNE,27,5.0,6.0,64,0.00,,,0.00,172,Wunderground v.1.15,2013-02-02 15:21:00,
2013-02-02 15:51:00,42.9,31.9,30.13,NNW,333,2.0,9.0,65,0.00,,,0.00,25,Wunderground v.1.15,2013-02-02 15:51:00,
2013-02-02 16:21:00,41.5,31.0,30.15,NNW,329,3.0,3.0,66,0.00,,,0.00,16,Wunderground v.1.15,2013-02-02 16:21:00,
2013-02-02 16:50:00,40.2,30.5,30.17,NNW,341,1.0,1.0,68,0.00,,,0.00,0,Wunderground v.1.15,2013-02-02 16:50:00,
2013-02-02 17:20:00,38.3,30.1,30.17,NNE,22,0.0,0.0,72,0.00,,,0.00,0,Wunderground v.1.15,2013-02-02 17:20:00,
2013-02-02 17:51:00,35.9,29.4,30.19,NNE,22,0.0,1.0,77,0.00,,,0.00,0,Wunderground v.1.15,2013-02-02 17:51:00,
2013-02-02 18:20:00,34.4,29.2,30.19,NNW,333,0.0,1.0,81,0.00,,,0.00,0,Wunderground v.1.15,2013-02-02 18:20:00,
2013-02-02 18:50:00,33.3,28.7,30.21,NNW,332,0.0,0.0,83,0.00,,,0.00,0,Wunderground v.1.15,2013-02-02 18:50:00,
2013-02-02 19:50:00,34.9,30.3,30.23,NNW,333,0.0,0.0,83,0.00,,,0.00,0,Wunderground v.1.15,2013-02-02 19:50:00,
2013-02-02 20:20:00,34.6,29.4,30.22,North,360,0.0,0.0,81,0.00,,,0.00,0,Wunderground v.1.15,2013-02-02 20:20:00,
2013-02-02 20:50:00,32.7,28.1,30.23,WNW,294,0.0,0.0,83,0.00,,,0.00,0,Wunderground v.1.15,2013-02-02 20:50:00,
2013-02-02 21:20:00,31.3,27.6,30.24,WNW,295,0.0,0.0,86,0.00,,,0.00,0,Wunderground v.1.15,2013-02-02 21:20:00,
2013-02-02 21:51:00,30.3,26.9,30.24,WNW,295,0.0,0.0,87,0.00,,,0.00,0,Wunderground v.1.15,2013-02-02 21:51:00,
2013-02-02 22:20:00,29.6,26.8,30.24,WNW,294,0.0,0.0,89,0.00,,,0.00,0,Wunderground v.1.15,2013-02-02 22:20:00,
2013-02-02 22:50:00,29.0,26.4,30.24,WNW,295,0.0,0.0,90,0.00,,,0.00,0,Wunderground v.1.15,2013-02-02 22:50:00,
2013-02-02 23:20:00,28.7,26.1,30.25,WNW,295,0.0,0.0,90,0.00,,,0.00,0,Wunderground v.1.15,2013-02-02 23:20:00,
2013-02-02 23:50:00,28.5,26.2,30.25,N/A,-737280,0.0,-999.0,91,0.00,,,0.00,0,Wunderground v.1.15,2013-02-02 23:50:00,
2013-02-02 23:55:00,28.4,26.1,30.26,N/A,-737280,0.0,-999.0,91,0.00,,,0.00,0,Wunderground v.1.15,2013-02-02 23:55:00,